User: anonymous   Login
Location: Tel Aviv
(32.0670°N, 34.7670°E)
Time: 12:53:35
(UTC+03:00)
Language:

First-Move - Orbit

View from above orbital plane
View from above orbital plane
View from above satellite
View from above satellite

Ground track
Ground track

The orbit data is extracted from the following two-line orbital elements,

1 39439U 13066Z   24259.87679662  .00033952  00000-0  23567-2 0  9994
2 39439  97.7183 222.9889 0039753 183.0888 177.0099 15.04833768584496
Epoch (UTC): 15 September 2024 21:02:35
Eccentricity: 0.0039753
inclination: 97.7183°
perigee height: 524 km
apogee height: 579 km
right ascension of ascending node: 222.9889°
argument of perigee: 183.0888°
revolutions per day: 15.04833768
mean anomaly at epoch: 177.0099°
orbit number at epoch: 58449

The dashed part of the orbit path shows where the satellite is in the earth's shadow,  

DLR